NPV1200 LICC-EFHK

Flight info

Callsign NPV1200
Flight time 3h 47m
Altitude 32000
Route BUDIN DCT AIOSA/N0457F330 DCT SOMUN DCT SMI DCT PARAK DCT KEKED/N0454F350 DCT SUMAM M857 BULEP DCT BOKSU DCT INBOV DCT GUNTA M857 SOKVA DCT ANAMA DCT KEMET Q11 INTOR
Aircraft A321/M-SDE3FGHIRWY/LB1

Departure

Time 2026-04-24 06:47
Airport Catania-Fontanarossa Airport (LICC)

Arrival

Time 2026-04-24 10:35
Airport Helsinki Vantaa Airport (EFHK)
Time Latitude Longitude Altitude Speed Heading
2026-04-24 06:36 37.46929 15.06573 31 ft 0 kts 19°
2026-04-24 06:39 37.46926 15.06571 31 ft 3 kts 18°
2026-04-24 06:39 37.46900 15.06563 30 ft 4 kts
2026-04-24 06:40 37.46873 15.06558 29 ft 4 kts 12°
2026-04-24 06:40 37.46849 15.06548 32 ft 4 kts 40°
2026-04-24 06:40 37.46835 15.06523 30 ft 4 kts 80°
2026-04-24 06:40 37.46834 15.06516 30 ft 0 kts 84°
2026-04-24 06:43 37.46834 15.06517 30 ft 0 kts 84°
2026-04-24 06:43 37.46835 15.06526 29 ft 2 kts 84°
2026-04-24 06:44 37.46838 15.06570 32 ft 8 kts 84°
2026-04-24 06:44 37.46846 15.06660 32 ft 13 kts 84°
2026-04-24 06:44 37.46858 15.06806 32 ft 20 kts 84°
2026-04-24 06:44 37.46873 15.06998 32 ft 25 kts 84°
2026-04-24 06:45 37.46894 15.07238 32 ft 30 kts 84°
2026-04-24 06:45 37.46918 15.07521 32 ft 34 kts 84°
2026-04-24 06:45 37.46943 15.07812 32 ft 33 kts 84°
2026-04-24 06:45 37.46941 15.08059 32 ft 23 kts 126°
2026-04-24 06:46 37.46813 15.08051 35 ft 19 kts 229°
2026-04-24 06:46 37.46785 15.07912 35 ft 0 kts 264°
2026-04-24 06:46 37.46785 15.07908 36 ft 1 kts 264°
2026-04-24 06:46 37.46783 15.07883 36 ft 11 kts 264°
2026-04-24 06:47 37.46755 15.07556 36 ft 74 kts 264°
2026-04-24 06:47 37.46677 15.06623 36 ft 138 kts 264°
2026-04-24 06:47 37.46559 15.05265 403 ft 163 kts 263°
2026-04-24 06:47 37.46440 15.03756 940 ft 183 kts 264°
2026-04-24 06:48 37.46314 15.02139 1347 ft 188 kts 265°
2026-04-24 06:48 37.46210 15.00458 1624 ft 201 kts 274°
2026-04-24 06:48 37.46793 14.98800 1688 ft 221 kts 315°
2026-04-24 06:48 37.48140 14.97725 1748 ft 246 kts 334°
2026-04-24 06:49 37.49717 14.96747 2172 ft 256 kts 335°
2026-04-24 06:49 37.51329 14.95758 2926 ft 258 kts 335°
2026-04-24 06:49 37.52945 14.94760 3648 ft 260 kts 335°
2026-04-24 06:49 37.54571 14.93748 4363 ft 261 kts 335°
2026-04-24 06:50 37.56207 14.92723 5073 ft 263 kts 335°
2026-04-24 06:50 37.57853 14.91688 5755 ft 265 kts 335°
2026-04-24 06:50 37.59510 14.90642 6426 ft 268 kts 335°
2026-04-24 06:50 37.61179 14.89585 7047 ft 270 kts 335°
2026-04-24 06:51 37.62862 14.88518 7670 ft 272 kts 335°
2026-04-24 06:51 37.64560 14.87442 8307 ft 274 kts 335°
2026-04-24 06:51 37.66272 14.86357 8946 ft 276 kts 335°
2026-04-24 06:51 37.67997 14.85262 9591 ft 278 kts 336°
2026-04-24 06:52 37.69735 14.84160 10212 ft 281 kts 336°
2026-04-24 06:52 37.71523 14.83026 10454 ft 297 kts 336°
2026-04-24 06:52 37.73436 14.81816 10594 ft 317 kts 336°
2026-04-24 06:52 37.75462 14.80534 10709 ft 335 kts 335°
2026-04-24 06:53 37.77603 14.79180 10839 ft 352 kts 335°
2026-04-24 06:53 37.79847 14.77756 10960 ft 370 kts 335°
2026-04-24 06:53 37.82182 14.76268 11277 ft 380 kts 335°
2026-04-24 06:53 37.84519 14.74775 11747 ft 383 kts 335°
2026-04-24 06:54 37.86941 14.73226 12324 ft 386 kts 335°
2026-04-24 06:54 37.89418 14.71918 12849 ft 386 kts 345°
2026-04-24 06:54 37.92053 14.71274 13394 ft 386 kts 356°
2026-04-24 06:54 37.94738 14.71330 13877 ft 388 kts
2026-04-24 06:55 37.97361 14.72078 14202 ft 384 kts 19°
2026-04-24 06:55 37.99752 14.73444 14314 ft 384 kts 30°
2026-04-24 06:55 38.02091 14.75143 14645 ft 391 kts 30°
2026-04-24 06:55 38.04461 14.76854 15139 ft 394 kts 29°
2026-04-24 06:56 38.06858 14.78576 15613 ft 397 kts 29°
2026-04-24 06:56 38.09266 14.80303 16098 ft 399 kts 29°
2026-04-24 06:56 38.11691 14.82040 16552 ft 402 kts 29°
2026-04-24 06:56 38.14139 14.83793 16970 ft 405 kts 29°
2026-04-24 06:57 38.16597 14.85557 17388 ft 408 kts 29°
2026-04-24 06:57 38.19078 14.87339 17783 ft 412 kts 29°
2026-04-24 06:57 38.21586 14.89141 18155 ft 416 kts 30°
2026-04-24 06:57 38.24109 14.90958 18529 ft 419 kts 30°
2026-04-24 06:58 38.26654 14.92795 18900 ft 420 kts 30°
2026-04-24 06:58 38.29194 14.94630 19365 ft 420 kts 30°
2026-04-24 06:58 38.31733 14.96466 19779 ft 420 kts 30°
2026-04-24 06:58 38.34280 14.98308 20159 ft 422 kts 30°
2026-04-24 06:59 38.36835 15.00157 20531 ft 423 kts 30°
2026-04-24 06:59 38.39404 15.02017 20875 ft 426 kts 30°
2026-04-24 06:59 38.41989 15.03889 21188 ft 429 kts 30°
2026-04-24 06:59 38.44591 15.05776 21534 ft 431 kts 30°
2026-04-24 07:00 38.47204 15.07676 21877 ft 433 kts 30°
2026-04-24 07:00 38.49868 15.09506 22215 ft 435 kts 27°
2026-04-24 07:00 38.52591 15.11195 22562 ft 436 kts 25°
2026-04-24 07:00 38.55361 15.12799 22893 ft 438 kts 24°
2026-04-24 07:01 38.58154 15.14371 23207 ft 440 kts 24°
2026-04-24 07:01 38.60959 15.15956 23498 ft 442 kts 24°
2026-04-24 07:01 38.63775 15.17579 23791 ft 444 kts 25°
2026-04-24 07:01 38.66589 15.19234 24058 ft 446 kts 25°
2026-04-24 07:02 38.69411 15.20916 24349 ft 448 kts 25°
2026-04-24 07:02 38.72231 15.22612 24707 ft 447 kts 25°
2026-04-24 07:02 38.75037 15.24309 25108 ft 446 kts 25°
2026-04-24 07:02 38.77839 15.26004 25507 ft 444 kts 25°
2026-04-24 07:03 38.80632 15.27691 25876 ft 444 kts 25°
2026-04-24 07:03 38.83430 15.29375 26227 ft 444 kts 25°
2026-04-24 07:03 38.86179 15.31026 26708 ft 440 kts 25°
2026-04-24 07:03 38.88977 15.32707 27160 ft 438 kts 25°
2026-04-24 07:04 38.91695 15.34341 27574 ft 436 kts 25°
2026-04-24 07:04 38.94437 15.35992 27967 ft 435 kts 25°
2026-04-24 07:04 38.97171 15.37638 28376 ft 433 kts 25°
2026-04-24 07:04 38.99934 15.39305 28783 ft 432 kts 25°
2026-04-24 07:05 39.02616 15.40926 29070 ft 433 kts 25°
2026-04-24 07:05 39.08062 15.44218 29126 ft 432 kts 25°
2026-04-24 07:06 39.13511 15.47514 29108 ft 432 kts 25°
2026-04-24 07:06 39.18955 15.50810 29103 ft 432 kts 25°
2026-04-24 07:07 39.24404 15.54129 29116 ft 434 kts 25°
2026-04-24 07:07 39.31672 15.58566 29115 ft 434 kts 25°
2026-04-24 07:08 39.37141 15.61900 29111 ft 434 kts 25°
2026-04-24 07:08 39.43501 15.65778 29602 ft 433 kts 25°
2026-04-24 07:09 39.45338 15.66904 29906 ft 432 kts 25°
2026-04-24 07:09 39.48046 15.68566 30306 ft 430 kts 25°
2026-04-24 07:09 39.50748 15.70225 30640 ft 428 kts 25°
2026-04-24 07:09 39.53398 15.71856 30963 ft 427 kts 25°
2026-04-24 07:10 39.56084 15.73508 31277 ft 426 kts 25°
2026-04-24 07:10 39.58761 15.75155 31595 ft 425 kts 25°
2026-04-24 07:10 39.61428 15.76792 31903 ft 424 kts 25°
2026-04-24 07:10 39.64091 15.78428 32203 ft 423 kts 25°
2026-04-24 07:11 39.66747 15.80065 32509 ft 422 kts 25°
2026-04-24 07:11 39.69396 15.81701 32804 ft 421 kts 25°
2026-04-24 07:11 39.72046 15.83336 33095 ft 420 kts 25°
2026-04-24 07:11 39.74684 15.84965 33376 ft 420 kts 25°
2026-04-24 07:12 39.77318 15.86588 33659 ft 419 kts 25°
2026-04-24 07:12 39.79946 15.88214 33939 ft 418 kts 25°
2026-04-24 07:12 39.82569 15.89842 34192 ft 418 kts 25°
2026-04-24 07:12 39.85190 15.91469 34375 ft 418 kts 25°
2026-04-24 07:13 39.87819 15.93100 34574 ft 418 kts 25°
2026-04-24 07:13 39.90451 15.94734 34777 ft 419 kts 25°
2026-04-24 07:13 39.93082 15.96367 34962 ft 419 kts 25°
2026-04-24 07:13 39.95712 15.98000 35099 ft 420 kts 25°
2026-04-24 07:14 40.01006 16.01304 35136 ft 422 kts 25°
2026-04-24 07:14 40.06320 16.04625 35150 ft 424 kts 25°
2026-04-24 07:15 40.11611 16.07930 35147 ft 424 kts 25°
2026-04-24 07:15 40.16930 16.11262 35154 ft 424 kts 25°
2026-04-24 07:16 40.22253 16.14600 35149 ft 424 kts 25°
2026-04-24 07:16 40.27584 16.17953 35154 ft 425 kts 25°
2026-04-24 07:17 40.32921 16.21313 35149 ft 426 kts 26°
2026-04-24 07:17 40.38259 16.24679 35148 ft 426 kts 26°
2026-04-24 07:18 40.43600 16.28054 35140 ft 426 kts 26°
2026-04-24 07:18 40.48943 16.31428 35146 ft 426 kts 26°
2026-04-24 07:19 40.54288 16.34823 35152 ft 426 kts 26°
2026-04-24 07:19 40.59627 16.38213 35157 ft 426 kts 26°
2026-04-24 07:20 40.64964 16.41599 35157 ft 425 kts 27°
2026-04-24 07:20 40.70288 16.44989 35158 ft 425 kts 27°
2026-04-24 07:21 40.75609 16.48387 35153 ft 424 kts 27°
2026-04-24 07:21 40.80919 16.51791 35146 ft 424 kts 27°
2026-04-24 07:22 40.86233 16.55189 35150 ft 424 kts 27°
2026-04-24 07:22 40.91503 16.58570 35154 ft 424 kts 27°
2026-04-24 07:23 40.96803 16.61991 35150 ft 424 kts 27°
2026-04-24 07:23 41.02099 16.65408 35153 ft 423 kts 27°
2026-04-24 07:24 41.07400 16.68826 35160 ft 423 kts 27°
2026-04-24 07:24 41.12688 16.72245 35179 ft 423 kts 27°
2026-04-24 07:25 41.17983 16.75670 35163 ft 423 kts 27°
2026-04-24 07:25 41.23268 16.79098 35163 ft 423 kts 27°
2026-04-24 07:26 41.28559 16.82533 35161 ft 423 kts 27°
2026-04-24 07:26 41.33850 16.85973 35155 ft 423 kts 27°
2026-04-24 07:27 41.39139 16.89425 35149 ft 423 kts 27°
2026-04-24 07:27 41.44420 16.92884 35141 ft 423 kts 27°
2026-04-24 07:28 41.49703 16.96348 35146 ft 423 kts 27°
2026-04-24 07:28 41.54959 16.99792 35146 ft 423 kts 27°
2026-04-24 07:29 41.60242 17.03257 35141 ft 423 kts 27°
2026-04-24 07:29 41.65522 17.06746 35159 ft 423 kts 27°
2026-04-24 07:30 41.70801 17.10232 35156 ft 423 kts 27°
2026-04-24 07:30 41.76084 17.13715 35134 ft 423 kts 27°
2026-04-24 07:31 41.81364 17.17210 35145 ft 423 kts 27°
2026-04-24 07:31 41.86648 17.20719 35138 ft 424 kts 27°
2026-04-24 07:32 41.91930 17.24229 35143 ft 424 kts 26°
2026-04-24 07:32 41.97209 17.27738 35140 ft 423 kts 26°
2026-04-24 07:33 42.02487 17.31235 35143 ft 423 kts 26°
2026-04-24 07:33 42.07754 17.34740 35140 ft 422 kts 26°
2026-04-24 07:34 42.13014 17.38246 35142 ft 421 kts 26°
2026-04-24 07:34 42.18262 17.41757 35154 ft 419 kts 26°
2026-04-24 07:35 42.23477 17.45251 35144 ft 418 kts 26°
2026-04-24 07:35 42.28650 17.48721 35131 ft 418 kts 26°
2026-04-24 07:36 42.33850 17.52216 35135 ft 417 kts 26°
2026-04-24 07:36 42.39050 17.55717 35135 ft 417 kts 26°
2026-04-24 07:37 42.44252 17.59211 35132 ft 417 kts 26°
2026-04-24 07:37 42.49457 17.62715 35119 ft 418 kts 26°
2026-04-24 07:38 42.54657 17.66235 35118 ft 418 kts 26°
2026-04-24 07:38 42.59866 17.69770 35118 ft 418 kts 26°
2026-04-24 07:39 42.65077 17.73311 35107 ft 419 kts 26°
2026-04-24 07:39 42.70292 17.76870 35112 ft 420 kts 26°
2026-04-24 07:40 42.75516 17.80441 35115 ft 421 kts 26°
2026-04-24 07:40 42.80750 17.84010 35115 ft 421 kts 26°
2026-04-24 07:41 42.85996 17.87587 35118 ft 421 kts 26°
2026-04-24 07:41 42.91205 17.91154 35118 ft 422 kts 26°
2026-04-24 07:42 42.96445 17.94771 35122 ft 422 kts 26°
2026-04-24 07:42 43.01690 17.98385 35124 ft 422 kts 26°
2026-04-24 07:43 43.06940 18.02002 35126 ft 422 kts 26°
2026-04-24 07:43 43.12184 18.05621 35130 ft 422 kts 26°
2026-04-24 07:44 43.17430 18.09253 35139 ft 422 kts 26°
2026-04-24 07:44 43.22664 18.12883 35130 ft 422 kts 26°
2026-04-24 07:45 43.27898 18.16521 35129 ft 421 kts 26°
2026-04-24 07:45 43.33120 18.20164 35131 ft 421 kts 27°
2026-04-24 07:46 43.38344 18.23807 35149 ft 421 kts 26°
2026-04-24 07:46 43.43569 18.27450 35143 ft 421 kts 26°
2026-04-24 07:47 43.48790 18.31106 35141 ft 421 kts 27°
2026-04-24 07:47 43.53968 18.34743 35150 ft 420 kts 27°
2026-04-24 07:48 43.59168 18.38400 35167 ft 419 kts 27°
2026-04-24 07:48 43.64362 18.42058 35175 ft 419 kts 27°
2026-04-24 07:49 43.69548 18.45717 35180 ft 418 kts 27°
2026-04-24 07:49 43.74724 18.49378 35182 ft 418 kts 27°
2026-04-24 07:50 43.79903 18.53055 35194 ft 418 kts 27°
2026-04-24 07:50 43.85071 18.56739 35178 ft 418 kts 27°
2026-04-24 07:51 43.90237 18.60413 35175 ft 417 kts 27°
2026-04-24 07:51 43.95405 18.64092 35168 ft 417 kts 27°
2026-04-24 07:52 44.00566 18.67772 35158 ft 417 kts 27°
2026-04-24 07:52 44.05689 18.71434 35154 ft 416 kts 28°
2026-04-24 07:53 44.10842 18.75129 35154 ft 416 kts 28°
2026-04-24 07:53 44.15993 18.78835 35148 ft 416 kts 28°
2026-04-24 07:54 44.21136 18.82543 35143 ft 417 kts 28°
2026-04-24 07:54 44.26285 18.86258 35145 ft 417 kts 28°
2026-04-24 07:55 44.31438 18.89982 35145 ft 417 kts 28°
2026-04-24 07:55 44.35716 18.93078 35146 ft 417 kts 28°
2026-04-24 07:56 44.40898 18.96839 35145 ft 417 kts 28°
2026-04-24 07:56 44.46009 19.00561 35142 ft 417 kts 28°
2026-04-24 07:57 44.51147 19.04306 35138 ft 416 kts 28°
2026-04-24 07:57 44.56294 19.08055 35139 ft 416 kts 28°
2026-04-24 07:58 44.61421 19.11823 35144 ft 415 kts 30°
2026-04-24 07:58 44.66470 19.15758 35132 ft 414 kts 31°
2026-04-24 07:59 44.71478 19.19752 35130 ft 414 kts 31°
2026-04-24 07:59 44.76491 19.23731 35134 ft 413 kts 31°
2026-04-24 08:00 44.81503 19.27683 35128 ft 413 kts 30°
2026-04-24 08:00 44.86517 19.31635 35132 ft 412 kts 30°
2026-04-24 08:01 44.91495 19.35568 35132 ft 412 kts 30°
2026-04-24 08:01 44.96522 19.39557 35126 ft 411 kts 31°
2026-04-24 08:02 45.01549 19.43407 35118 ft 412 kts 25°
2026-04-24 08:02 45.06840 19.46396 35114 ft 412 kts 24°
2026-04-24 08:03 45.12165 19.49392 35117 ft 412 kts 24°
2026-04-24 08:03 45.17491 19.52398 35110 ft 412 kts 24°
2026-04-24 08:04 45.22811 19.55411 35111 ft 412 kts 24°
2026-04-24 08:04 45.28130 19.58426 35111 ft 411 kts 24°
2026-04-24 08:05 45.33440 19.61443 35117 ft 411 kts 24°
2026-04-24 08:05 45.38747 19.64471 35120 ft 410 kts 24°
2026-04-24 08:06 45.44041 19.67496 35109 ft 410 kts 24°
2026-04-24 08:06 45.49339 19.70521 35115 ft 410 kts 23°
2026-04-24 08:07 45.54623 19.73541 35117 ft 409 kts 23°
2026-04-24 08:07 45.59905 19.76572 35107 ft 409 kts 24°
2026-04-24 08:08 45.65179 19.79619 35113 ft 409 kts 23°
2026-04-24 08:09 45.73045 19.84154 35115 ft 408 kts 23°
2026-04-24 08:09 45.78308 19.87197 35108 ft 408 kts 23°
2026-04-24 08:10 45.83564 19.90243 35102 ft 407 kts 23°
2026-04-24 08:10 45.88819 19.93292 35114 ft 407 kts 23°
2026-04-24 08:11 45.94067 19.96341 35110 ft 407 kts 23°
2026-04-24 08:11 45.99309 19.99408 35095 ft 406 kts 23°
2026-04-24 08:12 46.04547 20.02471 35093 ft 406 kts 23°
2026-04-24 08:12 46.09775 20.05530 35099 ft 406 kts 23°
2026-04-24 08:13 46.15004 20.08595 35091 ft 405 kts 23°
2026-04-24 08:13 46.20272 20.11486 35087 ft 406 kts 20°
2026-04-24 08:14 46.25638 20.14028 35087 ft 405 kts 19°
2026-04-24 08:14 46.31006 20.16523 35086 ft 405 kts 19°
2026-04-24 08:15 46.36352 20.19086 35077 ft 404 kts 20°
2026-04-24 08:15 46.41644 20.21685 35082 ft 404 kts 20°
2026-04-24 08:16 46.46968 20.24314 35077 ft 404 kts 20°
2026-04-24 08:16 46.52290 20.26933 35075 ft 404 kts 20°
2026-04-24 08:17 46.57621 20.29547 35072 ft 404 kts 20°
2026-04-24 08:17 46.62943 20.32163 35071 ft 404 kts 19°
2026-04-24 08:18 46.68264 20.34784 35078 ft 404 kts 19°
2026-04-24 08:18 46.73583 20.37405 35070 ft 403 kts 19°
2026-04-24 08:19 46.78897 20.40040 35069 ft 403 kts 20°
2026-04-24 08:19 46.84204 20.42674 35068 ft 403 kts 19°
2026-04-24 08:20 46.89519 20.45320 35065 ft 403 kts 19°
2026-04-24 08:20 46.94825 20.47973 35064 ft 403 kts 19°
2026-04-24 08:21 47.00132 20.50623 35063 ft 403 kts 19°
2026-04-24 08:21 47.05436 20.53276 35062 ft 403 kts 19°
2026-04-24 08:22 47.10738 20.55940 35062 ft 403 kts 19°
2026-04-24 08:22 47.16040 20.58607 35068 ft 403 kts 19°
2026-04-24 08:23 47.21310 20.61264 35069 ft 403 kts 19°
2026-04-24 08:23 47.26616 20.63942 35063 ft 403 kts 19°
2026-04-24 08:24 47.31915 20.66624 35059 ft 403 kts 19°
2026-04-24 08:24 47.37214 20.69315 35057 ft 403 kts 19°
2026-04-24 08:25 47.42515 20.72005 35064 ft 403 kts 19°
2026-04-24 08:25 47.47811 20.74698 35059 ft 402 kts 19°
2026-04-24 08:26 47.53109 20.77396 35051 ft 402 kts 19°
2026-04-24 08:26 47.58409 20.80115 35051 ft 402 kts 19°
2026-04-24 08:27 47.63700 20.82834 35057 ft 402 kts 19°
2026-04-24 08:27 47.68989 20.85553 35054 ft 402 kts 19°
2026-04-24 08:28 47.74241 20.88253 35052 ft 402 kts 19°
2026-04-24 08:28 47.79528 20.90977 35051 ft 402 kts 19°
2026-04-24 08:29 47.84815 20.93716 35058 ft 402 kts 19°
2026-04-24 08:29 47.90106 20.96455 35053 ft 402 kts 19°
2026-04-24 08:30 47.95393 20.99199 35048 ft 402 kts 19°
2026-04-24 08:30 48.00668 21.01944 35048 ft 402 kts 19°
2026-04-24 08:31 48.05946 21.04702 35056 ft 401 kts 18°
2026-04-24 08:31 48.11220 21.07456 35049 ft 401 kts 18°
2026-04-24 08:32 48.16495 21.10216 35046 ft 401 kts 18°
2026-04-24 08:32 48.21762 21.12981 35048 ft 401 kts 18°
2026-04-24 08:33 48.26996 21.15735 35055 ft 401 kts 18°
2026-04-24 08:33 48.32254 21.18511 35051 ft 400 kts 18°
2026-04-24 08:34 48.37512 21.21289 35049 ft 400 kts 18°
2026-04-24 08:34 48.42766 21.24066 35048 ft 400 kts 18°
2026-04-24 08:35 48.48020 21.26846 35055 ft 400 kts 18°
2026-04-24 08:35 48.53311 21.29357 35053 ft 398 kts 10°
2026-04-24 08:36 48.58785 21.30622 35053 ft 398 kts
2026-04-24 08:36 48.64264 21.31864 35051 ft 398 kts
2026-04-24 08:37 48.69702 21.33102 35043 ft 397 kts
2026-04-24 08:37 48.75169 21.34363 35044 ft 397 kts
2026-04-24 08:38 48.80638 21.35623 35047 ft 398 kts
2026-04-24 08:38 48.86108 21.36883 35047 ft 397 kts
2026-04-24 08:39 48.91567 21.38135 35060 ft 397 kts
2026-04-24 08:39 48.97028 21.39395 35058 ft 396 kts
2026-04-24 08:40 49.02485 21.40659 35057 ft 396 kts
2026-04-24 08:40 49.07929 21.41928 35054 ft 396 kts
2026-04-24 08:41 49.13371 21.43201 35048 ft 396 kts
2026-04-24 08:41 49.18818 21.44476 35053 ft 396 kts
2026-04-24 08:42 49.24261 21.45751 35054 ft 396 kts
2026-04-24 08:42 49.28780 21.46804 35053 ft 396 kts
2026-04-24 08:43 49.34230 21.48081 35067 ft 396 kts
2026-04-24 08:43 49.39669 21.49370 35064 ft 395 kts
2026-04-24 08:44 49.45104 21.50652 35067 ft 395 kts
2026-04-24 08:44 49.50536 21.51940 35036 ft 395 kts
2026-04-24 08:45 49.55973 21.53229 35043 ft 395 kts
2026-04-24 08:45 49.61418 21.54517 35043 ft 396 kts
2026-04-24 08:46 49.66832 21.55804 35043 ft 397 kts
2026-04-24 08:46 49.72291 21.57112 35052 ft 397 kts
2026-04-24 08:47 49.77754 21.58421 35066 ft 397 kts
2026-04-24 08:47 49.83215 21.59737 35067 ft 397 kts
2026-04-24 08:48 49.88680 21.61056 35069 ft 397 kts
2026-04-24 08:48 49.94144 21.62368 35065 ft 397 kts
2026-04-24 08:49 49.99614 21.63681 35060 ft 397 kts
2026-04-24 08:49 50.05044 21.64985 35069 ft 397 kts
2026-04-24 08:50 50.10499 21.66304 35065 ft 397 kts
2026-04-24 08:50 50.15954 21.67630 35061 ft 397 kts
2026-04-24 08:51 50.21413 21.68966 35060 ft 397 kts
2026-04-24 08:51 50.26867 21.70298 35077 ft 396 kts
2026-04-24 08:52 50.32314 21.71634 35069 ft 396 kts
2026-04-24 08:52 50.37752 21.72971 35040 ft 395 kts
2026-04-24 08:53 50.43194 21.74308 35052 ft 395 kts
2026-04-24 08:53 50.48624 21.75646 35080 ft 395 kts
2026-04-24 08:54 50.54057 21.76994 35071 ft 395 kts
2026-04-24 08:54 50.59478 21.78336 35068 ft 394 kts
2026-04-24 08:55 50.64892 21.79674 35066 ft 394 kts
2026-04-24 08:55 50.70269 21.81008 35077 ft 394 kts
2026-04-24 08:56 50.75673 21.82359 35070 ft 393 kts
2026-04-24 08:56 50.81073 21.83712 35064 ft 393 kts
2026-04-24 08:57 50.86469 21.85065 35051 ft 392 kts
2026-04-24 08:57 50.91862 21.86421 35053 ft 392 kts
2026-04-24 08:58 50.97249 21.87776 35073 ft 392 kts
2026-04-24 08:58 51.02636 21.89132 35060 ft 391 kts
2026-04-24 08:59 51.08015 21.90488 35058 ft 391 kts
2026-04-24 08:59 51.13395 21.91851 35054 ft 391 kts
2026-04-24 09:00 51.18775 21.93224 35070 ft 391 kts
2026-04-24 09:00 51.24150 21.94599 35064 ft 391 kts
2026-04-24 09:01 51.29503 21.95968 35026 ft 392 kts
2026-04-24 09:01 51.34896 21.97343 35037 ft 393 kts
2026-04-24 09:02 51.40293 21.98717 35037 ft 393 kts
2026-04-24 09:02 51.45697 22.00109 35030 ft 393 kts
2026-04-24 09:03 51.51101 22.01506 35036 ft 393 kts
2026-04-24 09:03 51.56503 22.02902 35031 ft 393 kts
2026-04-24 09:04 51.61901 22.04300 35031 ft 393 kts
2026-04-24 09:04 51.67294 22.05822 35048 ft 393 kts
2026-04-24 09:05 51.72678 22.07424 35044 ft 393 kts
2026-04-24 09:05 51.78074 22.09025 35036 ft 394 kts
2026-04-24 09:06 51.83424 22.10600 35037 ft 393 kts
2026-04-24 09:06 51.88816 22.12195 35031 ft 393 kts
2026-04-24 09:07 51.94200 22.13778 35036 ft 393 kts
2026-04-24 09:07 52.02288 22.16148 35028 ft 393 kts
2026-04-24 09:08 52.07675 22.17742 35022 ft 393 kts
2026-04-24 09:08 52.13064 22.19345 35021 ft 394 kts
2026-04-24 09:09 52.18413 22.20990 35031 ft 394 kts
2026-04-24 09:09 52.23780 22.22877 34993 ft 395 kts
2026-04-24 09:10 52.29154 22.24833 34996 ft 396 kts
2026-04-24 09:10 52.34535 22.26754 35003 ft 396 kts
2026-04-24 09:11 52.39933 22.28652 35027 ft 397 kts
2026-04-24 09:11 52.45324 22.30549 35019 ft 396 kts
2026-04-24 09:12 52.50723 22.32470 35019 ft 397 kts
2026-04-24 09:12 52.56117 22.34389 35010 ft 397 kts
2026-04-24 09:13 52.61516 22.36308 35018 ft 397 kts
2026-04-24 09:13 52.66909 22.38230 35028 ft 396 kts
2026-04-24 09:14 52.72300 22.40161 35018 ft 396 kts
2026-04-24 09:14 52.77677 22.42100 35014 ft 396 kts
2026-04-24 09:15 52.83041 22.44191 35006 ft 396 kts 10°
2026-04-24 09:15 52.88350 22.46381 35018 ft 396 kts 10°
2026-04-24 09:16 52.93696 22.48581 35005 ft 396 kts 10°
2026-04-24 09:16 52.99050 22.50742 35002 ft 396 kts 10°
2026-04-24 09:17 53.04404 22.52912 35000 ft 396 kts 10°
2026-04-24 09:17 53.09763 22.55106 35000 ft 397 kts 10°
2026-04-24 09:18 53.15125 22.57292 35016 ft 397 kts 10°
2026-04-24 09:18 53.20482 22.59476 35003 ft 396 kts 10°
2026-04-24 09:19 53.25805 22.61655 35001 ft 396 kts 10°
2026-04-24 09:19 53.31164 22.63863 34996 ft 397 kts 10°
2026-04-24 09:20 53.36527 22.66083 34986 ft 397 kts 10°
2026-04-24 09:20 53.41898 22.68305 34982 ft 398 kts 10°
2026-04-24 09:21 53.47283 22.70546 34983 ft 399 kts 10°
2026-04-24 09:21 53.52672 22.72785 34983 ft 399 kts 10°
2026-04-24 09:22 53.58068 22.75041 34988 ft 400 kts 10°
2026-04-24 09:22 53.63469 22.77299 35009 ft 400 kts 10°
2026-04-24 09:23 53.68867 22.79549 35004 ft 399 kts 10°
2026-04-24 09:23 53.74266 22.81808 34997 ft 400 kts 10°
2026-04-24 09:24 53.79627 22.84067 34992 ft 399 kts 10°
2026-04-24 09:24 53.85016 22.86351 34993 ft 399 kts 10°
2026-04-24 09:25 53.90407 22.88635 34981 ft 399 kts 10°
2026-04-24 09:25 53.95802 22.90926 34981 ft 399 kts 10°
2026-04-24 09:26 54.01191 22.93217 34982 ft 399 kts 10°
2026-04-24 09:26 54.06586 22.95516 34983 ft 399 kts 10°
2026-04-24 09:27 54.11980 22.97827 34996 ft 400 kts 10°
2026-04-24 09:27 54.17381 23.00145 34989 ft 400 kts 10°
2026-04-24 09:28 54.22781 23.02468 34978 ft 401 kts 10°
2026-04-24 09:28 54.28155 23.04789 34978 ft 401 kts 10°
2026-04-24 09:29 54.33577 23.06977 34970 ft 399 kts
2026-04-24 09:29 54.39048 23.08606 34991 ft 399 kts
2026-04-24 09:30 54.44521 23.10107 34975 ft 399 kts
2026-04-24 09:30 54.49998 23.11709 34972 ft 399 kts
2026-04-24 09:31 54.55464 23.13401 34933 ft 400 kts
2026-04-24 09:31 54.60958 23.15107 34958 ft 401 kts
2026-04-24 09:32 54.65529 23.16505 34956 ft 401 kts
2026-04-24 09:32 54.71034 23.18201 34950 ft 402 kts
2026-04-24 09:33 54.76541 23.19897 34949 ft 402 kts
2026-04-24 09:33 54.82050 23.21600 34943 ft 402 kts
2026-04-24 09:34 54.87564 23.23297 34964 ft 403 kts
2026-04-24 09:34 54.93090 23.25007 34956 ft 403 kts
2026-04-24 09:35 54.98608 23.26717 34949 ft 403 kts
2026-04-24 09:35 55.04130 23.28439 34937 ft 403 kts
2026-04-24 09:36 55.09655 23.30180 34938 ft 403 kts
2026-04-24 09:36 55.15145 23.31909 34955 ft 403 kts
2026-04-24 09:37 55.20669 23.33651 34939 ft 403 kts
2026-04-24 09:37 55.26195 23.35386 34930 ft 403 kts
2026-04-24 09:38 55.31719 23.37139 34937 ft 404 kts
2026-04-24 09:38 55.37249 23.38907 34925 ft 404 kts
2026-04-24 09:39 55.42775 23.40672 34925 ft 402 kts
2026-04-24 09:39 55.48281 23.42527 34911 ft 403 kts
2026-04-24 09:40 55.53788 23.44553 34879 ft 405 kts
2026-04-24 09:40 55.59309 23.46602 34886 ft 406 kts
2026-04-24 09:41 55.64856 23.48643 34888 ft 407 kts
2026-04-24 09:41 55.70407 23.50671 34917 ft 408 kts
2026-04-24 09:42 55.75974 23.52707 34909 ft 408 kts
2026-04-24 09:42 55.81543 23.54749 34901 ft 409 kts
2026-04-24 09:43 55.87115 23.56811 34900 ft 409 kts
2026-04-24 09:43 55.92648 23.58863 34925 ft 409 kts
2026-04-24 09:44 55.98218 23.60930 34909 ft 409 kts
2026-04-24 09:44 56.03786 23.63005 34903 ft 409 kts
2026-04-24 09:45 56.09354 23.65089 34895 ft 409 kts
2026-04-24 09:45 56.14926 23.67171 34898 ft 409 kts
2026-04-24 09:46 56.20493 23.69259 34918 ft 408 kts
2026-04-24 09:46 56.26057 23.71356 34906 ft 408 kts
2026-04-24 09:47 56.31607 23.73463 34894 ft 407 kts
2026-04-24 09:47 56.37114 23.75545 34890 ft 407 kts
2026-04-24 09:48 56.42655 23.77700 34888 ft 407 kts
2026-04-24 09:48 56.48198 23.79921 34887 ft 407 kts
2026-04-24 09:49 56.53728 23.82148 34885 ft 407 kts
2026-04-24 09:49 56.59262 23.84380 34877 ft 407 kts
2026-04-24 09:50 56.64810 23.86490 34840 ft 408 kts
2026-04-24 09:50 56.70399 23.88500 34843 ft 410 kts
2026-04-24 09:51 56.76002 23.90529 34881 ft 411 kts
2026-04-24 09:51 56.81574 23.92590 34882 ft 411 kts
2026-04-24 09:52 56.87180 23.94685 34883 ft 411 kts
2026-04-24 09:52 56.92781 23.96778 34883 ft 411 kts
2026-04-24 09:53 56.98402 23.98725 34887 ft 411 kts
2026-04-24 09:53 57.04028 24.00550 34902 ft 410 kts
2026-04-24 09:54 57.09650 24.02381 34894 ft 410 kts
2026-04-24 09:54 57.15261 24.04253 34893 ft 410 kts
2026-04-24 09:55 57.20875 24.06146 34894 ft 410 kts
2026-04-24 09:55 57.26487 24.08043 34893 ft 410 kts
2026-04-24 09:56 57.32083 24.09947 34886 ft 407 kts
2026-04-24 09:56 57.37649 24.11838 34885 ft 407 kts
2026-04-24 09:57 57.43223 24.13734 34880 ft 407 kts
2026-04-24 09:57 57.48800 24.15641 34882 ft 408 kts
2026-04-24 09:58 57.54378 24.17557 34884 ft 408 kts
2026-04-24 09:58 57.59905 24.19466 34886 ft 405 kts
2026-04-24 09:59 57.65446 24.21390 34881 ft 405 kts
2026-04-24 09:59 57.70986 24.23313 34882 ft 405 kts
2026-04-24 10:00 57.76530 24.25236 34875 ft 405 kts
2026-04-24 10:00 57.82087 24.27170 34882 ft 405 kts
2026-04-24 10:01 57.87630 24.29120 34889 ft 405 kts
2026-04-24 10:01 57.93167 24.31054 34885 ft 404 kts
2026-04-24 10:02 57.98663 24.32920 34872 ft 404 kts
2026-04-24 10:02 58.04192 24.34801 34871 ft 404 kts
2026-04-24 10:03 58.09722 24.36700 34861 ft 404 kts
2026-04-24 10:03 58.15236 24.38626 34848 ft 400 kts
2026-04-24 10:04 58.20703 24.40532 34835 ft 400 kts
2026-04-24 10:04 58.26186 24.42425 34843 ft 400 kts
2026-04-24 10:05 58.31673 24.44331 34839 ft 401 kts
2026-04-24 10:05 58.37157 24.46258 34830 ft 401 kts
2026-04-24 10:06 58.45341 24.49146 34831 ft 399 kts
2026-04-24 10:07 58.50802 24.51070 34831 ft 399 kts
2026-04-24 10:07 58.56269 24.52997 34831 ft 400 kts
2026-04-24 10:08 58.61735 24.54940 34831 ft 400 kts
2026-04-24 10:08 58.67206 24.56894 34806 ft 401 kts
2026-04-24 10:09 58.72694 24.58852 34836 ft 401 kts
2026-04-24 10:09 58.78194 24.60816 34833 ft 402 kts
2026-04-24 10:10 58.83691 24.62789 34833 ft 402 kts
2026-04-24 10:10 58.89188 24.64772 34831 ft 402 kts
2026-04-24 10:11 58.94691 24.66767 34831 ft 402 kts
2026-04-24 10:11 59.00200 24.68763 34852 ft 402 kts
2026-04-24 10:11 59.02946 24.69763 34705 ft 402 kts
2026-04-24 10:12 59.05710 24.70769 33786 ft 408 kts
2026-04-24 10:12 59.08507 24.71787 33057 ft 407 kts
2026-04-24 10:12 59.11286 24.72808 32431 ft 404 kts
2026-04-24 10:12 59.14000 24.73809 31883 ft 401 kts
2026-04-24 10:13 59.16723 24.74814 31299 ft 394 kts
2026-04-24 10:13 59.19398 24.75802 30504 ft 389 kts
2026-04-24 10:13 59.22046 24.76779 29854 ft 385 kts
2026-04-24 10:13 59.24670 24.77750 29180 ft 381 kts
2026-04-24 10:14 59.27255 24.78703 28519 ft 376 kts
2026-04-24 10:14 59.29805 24.79641 27876 ft 371 kts
2026-04-24 10:14 59.32324 24.80574 27235 ft 367 kts
2026-04-24 10:14 59.34804 24.81498 26484 ft 360 kts
2026-04-24 10:15 59.37248 24.82409 25896 ft 353 kts
2026-04-24 10:15 59.39639 24.83295 25543 ft 346 kts
2026-04-24 10:15 59.41956 24.84515 25155 ft 346 kts 14°
2026-04-24 10:15 59.44180 24.86317 24754 ft 344 kts 16°
2026-04-24 10:16 59.46370 24.88131 24359 ft 341 kts 16°
2026-04-24 10:16 59.48553 24.89950 23958 ft 338 kts 16°
2026-04-24 10:16 59.50706 24.91744 23565 ft 336 kts 16°
2026-04-24 10:16 59.52851 24.93530 23125 ft 333 kts 16°
2026-04-24 10:17 59.54976 24.95299 22724 ft 329 kts 16°
2026-04-24 10:17 59.57076 24.97050 22331 ft 325 kts 16°
2026-04-24 10:17 59.59138 24.98778 21927 ft 320 kts 16°
2026-04-24 10:17 59.61179 25.00490 21531 ft 316 kts 16°
2026-04-24 10:18 59.63185 25.02173 21140 ft 311 kts 16°
2026-04-24 10:18 59.65165 25.03829 20745 ft 307 kts 16°
2026-04-24 10:18 59.67119 25.05463 20358 ft 303 kts 16°
2026-04-24 10:18 59.69049 25.07081 19970 ft 299 kts 16°
2026-04-24 10:19 59.70926 25.08659 19588 ft 295 kts 16°
2026-04-24 10:19 59.72828 25.10260 19209 ft 292 kts 16°
2026-04-24 10:19 59.74684 25.11823 18827 ft 288 kts 16°
2026-04-24 10:19 59.76521 25.13373 18463 ft 285 kts 16°
2026-04-24 10:20 59.78310 25.14884 18090 ft 282 kts 16°
2026-04-24 10:20 59.80109 25.16410 17689 ft 279 kts 16°
2026-04-24 10:20 59.81886 25.17920 17342 ft 276 kts 16°
2026-04-24 10:20 59.83643 25.19412 16966 ft 273 kts 16°
2026-04-24 10:21 59.85376 25.20886 16612 ft 269 kts 16°
2026-04-24 10:21 59.87088 25.22344 16339 ft 266 kts 16°
2026-04-24 10:21 59.88804 25.23797 16266 ft 270 kts 15°
2026-04-24 10:21 59.90588 25.24801 16156 ft 264 kts
2026-04-24 10:22 59.92417 25.24925 15748 ft 262 kts 353°
2026-04-24 10:22 59.93615 25.24733 15478 ft 261 kts 353°
2026-04-24 10:22 59.95421 25.24461 15085 ft 260 kts 353°
2026-04-24 10:22 59.97221 25.24200 14684 ft 258 kts 353°
2026-04-24 10:23 59.99008 25.23943 14304 ft 257 kts 353°
2026-04-24 10:23 60.00791 25.23690 13926 ft 256 kts 354°
2026-04-24 10:23 60.02570 25.23442 13528 ft 256 kts 354°
2026-04-24 10:23 60.04344 25.23195 13114 ft 255 kts 354°
2026-04-24 10:24 60.06112 25.22946 12717 ft 254 kts 354°
2026-04-24 10:24 60.07875 25.22694 12345 ft 254 kts 354°
2026-04-24 10:24 60.09638 25.22444 11962 ft 253 kts 354°
2026-04-24 10:24 60.11394 25.22195 11600 ft 253 kts 354°
2026-04-24 10:25 60.13147 25.21945 11198 ft 252 kts 354°
2026-04-24 10:25 60.14894 25.21697 10816 ft 251 kts 354°
2026-04-24 10:25 60.16639 25.21446 10442 ft 251 kts 354°
2026-04-24 10:25 60.18379 25.21195 10064 ft 250 kts 354°
2026-04-24 10:26 60.20116 25.20945 9678 ft 250 kts 354°
2026-04-24 10:26 60.21826 25.20696 9278 ft 250 kts 354°
2026-04-24 10:26 60.23556 25.20445 8896 ft 249 kts 354°
2026-04-24 10:26 60.25279 25.20197 8518 ft 248 kts 354°
2026-04-24 10:27 60.26999 25.19952 8136 ft 248 kts 354°
2026-04-24 10:27 60.28719 25.19709 7760 ft 248 kts 355°
2026-04-24 10:27 60.30436 25.19886 7381 ft 249 kts 10°
2026-04-24 10:27 60.32050 25.21179 6993 ft 254 kts 28°
2026-04-24 10:28 60.33407 25.23530 6660 ft 259 kts 44°
2026-04-24 10:28 60.34574 25.26202 6530 ft 249 kts 43°
2026-04-24 10:28 60.35710 25.28758 6401 ft 240 kts 43°
2026-04-24 10:28 60.36810 25.31212 6271 ft 231 kts 43°
2026-04-24 10:29 60.37880 25.33585 6037 ft 227 kts 42°
2026-04-24 10:29 60.39070 25.35622 5644 ft 221 kts 21°
2026-04-24 10:29 60.40537 25.36178 5334 ft 215 kts 353°
2026-04-24 10:29 60.41928 25.35151 4967 ft 217 kts 325°
2026-04-24 10:30 60.43033 25.33161 4832 ft 206 kts 320°
2026-04-24 10:30 60.44081 25.31221 4531 ft 202 kts 320°
2026-04-24 10:30 60.45092 25.29278 4226 ft 200 kts 312°
2026-04-24 10:30 60.45524 25.26637 3924 ft 207 kts 269°
2026-04-24 10:31 60.44920 25.23943 3622 ft 217 kts 237°
2026-04-24 10:31 60.43929 25.21700 3363 ft 208 kts 229°
2026-04-24 10:31 60.42938 25.19717 3104 ft 200 kts 230°
2026-04-24 10:31 60.41996 25.17695 2828 ft 194 kts 232°
2026-04-24 10:32 60.41119 25.15760 2582 ft 182 kts 233°
2026-04-24 10:32 60.40297 25.13937 2373 ft 168 kts 234°
2026-04-24 10:32 60.39529 25.12232 2106 ft 159 kts 234°
2026-04-24 10:32 60.38795 25.10599 1882 ft 154 kts 233°
2026-04-24 10:33 60.38077 25.09004 1669 ft 152 kts 234°
2026-04-24 10:33 60.37368 25.07430 1467 ft 151 kts 234°
2026-04-24 10:33 60.36663 25.05866 1265 ft 150 kts 234°
2026-04-24 10:33 60.35957 25.04301 1037 ft 151 kts 233°
2026-04-24 10:34 60.35250 25.02739 837 ft 149 kts 233°
2026-04-24 10:34 60.34554 25.01200 632 ft 149 kts 233°
2026-04-24 10:34 60.33855 24.99668 468 ft 149 kts 234°
2026-04-24 10:34 60.33168 24.98145 277 ft 146 kts 233°
2026-04-24 10:35 60.32503 24.96623 172 ft 144 kts 225°
2026-04-24 10:35 60.31954 24.95406 158 ft 77 kts 226°
2026-04-24 10:35 60.31736 24.94950 157 ft 35 kts 227°
2026-04-24 10:35 60.31569 24.94618 153 ft 30 kts 213°
2026-04-24 10:36 60.31421 24.94757 154 ft 26 kts 92°
2026-04-24 10:36 60.31442 24.95073 156 ft 21 kts 71°
2026-04-24 10:36 60.31458 24.95327 158 ft 17 kts 69°
2026-04-24 10:36 60.31443 24.95456 160 ft 8 kts 129°
2026-04-24 10:37 60.31411 24.95517 160 ft 0 kts 139°